Time,TemperatureF,DewpointF,PressureIn,WindDirection,WindDirectionDegrees,WindSpeedMPH,WindSpeedGustMPH,Humidity,HourlyPrecipIn,Conditions,Clouds,dailyrainin,SoftwareType,DateUTC
2013-02-19 00:01:00,37.0,32.0,29.81,NE,38,4.0,12.0,81,0.00,,,0.00,,2013-02-19 08:01:00,
2013-02-19 00:11:00,37.0,32.0,29.81,NE,38,4.0,12.0,81,0.00,,,0.00,,2013-02-19 08:11:00,
2013-02-19 00:21:00,37.0,31.0,29.81,North,9,3.0,10.0,79,0.00,,,0.00,,2013-02-19 08:21:00,
2013-02-19 00:31:00,37.0,31.0,29.81,North,355,5.0,9.0,79,0.00,,,0.00,,2013-02-19 08:31:00,
2013-02-19 00:41:00,37.0,31.0,29.81,North,355,5.0,9.0,79,0.00,,,0.00,,2013-02-19 08:41:00,
2013-02-19 00:52:00,37.0,31.0,29.80,North,350,2.0,9.0,78,0.00,,,0.00,,2013-02-19 08:52:00,
2013-02-19 01:01:00,36.0,30.0,29.80,North,355,7.0,12.0,80,0.00,,,0.00,,2013-02-19 09:01:00,
2013-02-19 01:11:00,36.0,30.0,29.80,North,355,7.0,12.0,80,0.00,,,0.00,,2013-02-19 09:11:00,
2013-02-19 01:21:00,36.0,30.0,29.80,NW,325,6.0,10.0,80,0.00,,,0.00,,2013-02-19 09:21:00,
2013-02-19 01:31:00,35.0,30.0,29.79,NNW,348,5.0,10.0,82,0.00,,,0.00,,2013-02-19 09:31:00,
2013-02-19 01:41:00,35.0,30.0,29.79,NNW,348,5.0,10.0,82,0.00,,,0.00,,2013-02-19 09:41:00,
2013-02-19 01:52:00,35.0,30.0,29.79,NE,45,6.0,10.0,81,0.00,,,0.00,,2013-02-19 09:52:00,
2013-02-19 02:01:00,35.0,27.0,29.78,North,355,5.0,9.0,72,0.00,,,0.00,,2013-02-19 10:01:00,
2013-02-19 02:11:00,35.0,27.0,29.78,North,355,5.0,9.0,72,0.00,,,0.00,,2013-02-19 10:11:00,
2013-02-19 02:21:00,36.0,26.0,29.78,SE,140,2.0,7.0,67,0.00,,,0.00,,2013-02-19 10:21:00,
2013-02-19 02:31:00,34.0,29.0,29.78,South,175,4.0,8.0,83,0.00,,,0.00,,2013-02-19 10:31:00,
2013-02-19 02:41:00,34.0,29.0,29.78,South,175,4.0,8.0,83,0.00,,,0.00,,2013-02-19 10:41:00,
2013-02-19 02:52:00,34.0,31.0,29.78,SSE,165,1.0,6.0,88,0.00,,,0.00,,2013-02-19 10:52:00,
2013-02-19 03:01:00,32.0,27.0,29.77,NNW,344,3.0,4.0,82,0.00,,,0.00,,2013-02-19 11:01:00,
2013-02-19 03:11:00,32.0,29.0,29.77,NNW,335,4.0,8.0,87,0.00,,,0.00,,2013-02-19 11:11:00,
2013-02-19 03:21:00,32.0,29.0,29.77,NNW,335,4.0,8.0,87,0.00,,,0.00,,2013-02-19 11:21:00,
2013-02-19 03:31:00,33.0,30.0,29.76,SSW,192,1.0,7.0,90,0.00,,,0.00,,2013-02-19 11:31:00,
2013-02-19 03:41:00,33.0,30.0,29.76,SSW,192,1.0,7.0,90,0.00,,,0.00,,2013-02-19 11:41:00,
2013-02-19 03:51:00,34.0,31.0,29.76,South,186,2.0,9.0,89,0.00,,,0.00,,2013-02-19 11:51:00,
2013-02-19 04:01:00,34.0,31.0,29.76,SSW,195,7.0,13.0,88,0.00,,,0.00,,2013-02-19 12:01:00,
2013-02-19 04:12:00,34.0,31.0,29.76,SSW,195,7.0,13.0,88,0.00,,,0.00,,2013-02-19 12:12:00,
2013-02-19 04:21:00,34.0,31.0,29.77,SW,214,6.0,16.0,87,0.00,,,0.00,,2013-02-19 12:21:00,
2013-02-19 04:32:00,34.0,31.0,29.77,NW,312,4.0,14.0,89,0.00,,,0.00,,2013-02-19 12:32:00,
2013-02-19 04:41:00,34.0,31.0,29.77,NW,312,4.0,14.0,89,0.00,,,0.00,,2013-02-19 12:41:00,
2013-02-19 04:52:00,33.0,31.0,29.77,NNW,328,5.0,11.0,93,0.00,,,0.00,,2013-02-19 12:52:00,
2013-02-19 05:01:00,33.0,31.0,29.77,North,360,6.0,19.0,94,0.00,,,0.00,,2013-02-19 13:01:00,
2013-02-19 05:11:00,33.0,31.0,29.77,North,360,6.0,19.0,94,0.00,,,0.00,,2013-02-19 13:11:00,
2013-02-19 05:22:00,33.0,31.0,29.77,North,360,8.0,16.0,94,0.00,,,0.00,,2013-02-19 13:22:00,
2013-02-19 05:31:00,32.0,30.0,29.75,NNE,13,11.0,18.0,93,0.00,,,0.00,,2013-02-19 13:31:00,
2013-02-19 05:41:00,32.0,30.0,29.75,NNE,13,11.0,18.0,93,0.00,,,0.00,,2013-02-19 13:41:00,
2013-02-19 05:52:00,33.0,31.0,29.75,NNW,340,12.0,21.0,92,0.00,,,0.00,,2013-02-19 13:52:00,
2013-02-19 06:01:00,33.0,31.0,29.75,North,360,13.0,19.0,91,0.00,,,0.00,,2013-02-19 14:01:00,
2013-02-19 06:11:00,33.0,31.0,29.75,North,360,13.0,19.0,91,0.00,,,0.00,,2013-02-19 14:11:00,
2013-02-19 06:21:00,33.0,31.0,29.75,North,9,12.0,21.0,91,0.00,,,0.00,,2013-02-19 14:21:00,
2013-02-19 06:32:00,33.0,30.0,29.75,North,355,9.0,19.0,90,0.00,,,0.00,,2013-02-19 14:32:00,
2013-02-19 06:41:00,33.0,30.0,29.75,North,355,9.0,19.0,90,0.00,,,0.00,,2013-02-19 14:41:00,
2013-02-19 06:52:00,33.0,30.0,29.75,North,355,8.0,19.0,90,0.00,,,0.00,,2013-02-19 14:52:00,
2013-02-19 07:01:00,33.0,30.0,29.74,NNW,333,10.0,17.0,88,0.00,,,0.00,,2013-02-19 15:01:00,
2013-02-19 07:11:00,33.0,30.0,29.74,NNW,333,10.0,17.0,88,0.00,,,0.00,,2013-02-19 15:11:00,
2013-02-19 07:21:00,33.0,30.0,29.74,NNW,338,7.0,16.0,87,0.00,,,0.00,,2013-02-19 15:21:00,
2013-02-19 07:31:00,33.0,30.0,29.75,NNW,344,6.0,13.0,87,0.00,,,0.00,,2013-02-19 15:31:00,
2013-02-19 07:41:00,33.0,30.0,29.75,NNW,344,6.0,13.0,87,0.00,,,0.00,,2013-02-19 15:41:00,
2013-02-19 07:52:00,33.0,30.0,29.75,North,9,6.0,13.0,88,0.00,,,0.00,,2013-02-19 15:52:00,
2013-02-19 08:01:00,32.0,30.0,29.76,North,5,3.0,12.0,91,0.00,,,0.00,,2013-02-19 16:01:00,
2013-02-19 08:11:00,32.0,30.0,29.76,North,5,3.0,12.0,91,0.00,,,0.00,,2013-02-19 16:11:00,
2013-02-19 08:21:00,33.0,30.0,29.76,NW,306,1.0,10.0,90,0.00,,,0.00,,2013-02-19 16:21:00,
2013-02-19 08:31:00,33.0,30.0,29.76,NE,51,1.0,7.0,87,0.00,,,0.00,,2013-02-19 16:31:00,
2013-02-19 08:41:00,33.0,30.0,29.76,NE,51,1.0,7.0,87,0.00,,,0.00,,2013-02-19 16:41:00,
2013-02-19 08:52:00,33.0,30.0,29.76,NNW,331,2.0,8.0,87,0.00,,,0.00,,2013-02-19 16:52:00,
2013-02-19 09:01:00,33.0,30.0,29.76,North,360,5.0,10.0,87,0.00,,,0.00,,2013-02-19 17:01:00,
2013-02-19 09:11:00,33.0,30.0,29.76,North,360,5.0,10.0,87,0.00,,,0.00,,2013-02-19 17:11:00,
2013-02-19 09:21:00,34.0,30.0,29.75,WNW,292,6.0,16.0,84,0.00,,,0.00,,2013-02-19 17:21:00,
2013-02-19 09:31:00,34.0,29.0,29.75,NNE,27,6.0,11.0,83,0.00,,,0.00,,2013-02-19 17:31:00,
2013-02-19 09:41:00,34.0,29.0,29.75,North,5,6.0,9.0,83,0.00,,,0.00,,2013-02-19 17:41:00,
2013-02-19 09:52:00,34.0,29.0,29.75,North,5,6.0,9.0,83,0.00,,,0.00,,2013-02-19 17:52:00,
2013-02-19 10:01:00,34.0,30.0,29.74,North,5,1.0,18.0,84,0.00,,,0.00,,2013-02-19 18:01:00,
2013-02-19 10:11:00,34.0,30.0,29.74,North,5,1.0,18.0,84,0.00,,,0.00,,2013-02-19 18:11:00,
2013-02-19 10:21:00,34.0,28.0,29.74,North,9,4.0,12.0,80,0.00,,,0.00,,2013-02-19 18:21:00,
2013-02-19 10:31:00,34.0,29.0,29.75,North,360,2.0,11.0,81,0.00,,,0.00,,2013-02-19 18:31:00,
2013-02-19 10:41:00,34.0,29.0,29.74,NNE,12,3.0,15.0,83,0.00,,,0.00,,2013-02-19 18:41:00,
2013-02-19 10:52:00,34.0,29.0,29.74,NNE,12,3.0,15.0,83,0.00,,,0.00,,2013-02-19 18:52:00,
2013-02-19 11:01:00,35.0,30.0,29.73,NNW,346,6.0,14.0,81,0.00,,,0.00,,2013-02-19 19:01:00,
2013-02-19 11:11:00,35.0,30.0,29.73,NNW,346,6.0,14.0,81,0.00,,,0.00,,2013-02-19 19:11:00,
2013-02-19 11:21:00,35.0,30.0,29.72,NNW,339,6.0,12.0,81,0.00,,,0.00,,2013-02-19 19:21:00,
2013-02-19 11:31:00,35.0,30.0,29.72,North,351,8.0,14.0,81,0.00,,,0.00,,2013-02-19 19:31:00,
2013-02-19 11:41:00,35.0,30.0,29.72,North,351,8.0,14.0,81,0.00,,,0.00,,2013-02-19 19:41:00,
2013-02-19 11:52:00,35.0,30.0,29.72,North,355,7.0,12.0,83,0.00,,,0.00,,2013-02-19 19:52:00,
2013-02-19 12:01:00,35.0,30.0,29.70,North,355,9.0,12.0,83,0.00,,,0.00,,2013-02-19 20:01:00,
2013-02-19 12:11:00,35.0,30.0,29.70,North,355,9.0,12.0,83,0.00,,,0.00,,2013-02-19 20:11:00,
2013-02-19 12:21:00,35.0,30.0,29.70,North,360,7.0,12.0,83,0.00,,,0.00,,2013-02-19 20:21:00,
2013-02-19 12:31:00,36.0,31.0,29.69,NNW,341,6.0,13.0,83,0.00,,,0.00,,2013-02-19 20:31:00,
2013-02-19 12:41:00,36.0,31.0,29.69,NNW,341,6.0,13.0,83,0.00,,,0.00,,2013-02-19 20:41:00,
2013-02-19 12:52:00,35.0,31.0,29.70,WNW,290,6.0,12.0,84,0.00,,,0.00,,2013-02-19 20:52:00,
2013-02-19 13:01:00,34.0,31.0,29.69,North,360,10.0,15.0,90,0.00,,,0.00,,2013-02-19 21:01:00,
2013-02-19 13:11:00,34.0,31.0,29.69,North,360,10.0,15.0,90,0.00,,,0.00,,2013-02-19 21:11:00,
2013-02-19 13:21:00,33.0,31.0,29.68,NNW,329,11.0,18.0,91,0.00,,,0.00,,2013-02-19 21:21:00,
2013-02-19 13:31:00,34.0,30.0,29.66,North,10,8.0,15.0,86,0.00,,,0.00,,2013-02-19 21:31:00,
2013-02-19 13:42:00,34.0,30.0,29.66,North,10,8.0,15.0,86,0.00,,,0.00,,2013-02-19 21:42:00,
2013-02-19 13:51:00,34.0,31.0,29.66,NNW,348,9.0,17.0,87,0.00,,,0.00,,2013-02-19 21:51:00,
2013-02-19 14:01:00,34.0,31.0,29.66,North,355,10.0,16.0,88,0.00,,,0.00,,2013-02-19 22:01:00,
2013-02-19 14:11:00,34.0,31.0,29.66,North,355,10.0,16.0,88,0.00,,,0.00,,2013-02-19 22:11:00,
2013-02-19 14:21:00,33.0,31.0,29.65,North,350,6.0,18.0,91,0.00,,,0.00,,2013-02-19 22:21:00,
2013-02-19 14:31:00,33.0,31.0,29.65,North,9,3.0,21.0,91,0.00,,,0.00,,2013-02-19 22:31:00,
2013-02-19 14:41:00,33.0,31.0,29.65,North,9,3.0,21.0,91,0.00,,,0.00,,2013-02-19 22:41:00,
2013-02-19 14:52:00,34.0,30.0,29.65,NNW,338,7.0,17.0,86,0.00,,,0.00,,2013-02-19 22:52:00,
2013-02-19 15:01:00,34.0,30.0,29.65,NNE,31,5.0,11.0,86,0.00,,,0.00,,2013-02-19 23:01:00,
2013-02-19 15:11:00,34.0,30.0,29.65,NNE,31,5.0,11.0,86,0.00,,,0.00,,2013-02-19 23:11:00,
2013-02-19 15:21:00,34.0,30.0,29.65,North,355,7.0,19.0,85,0.00,,,0.00,,2013-02-19 23:21:00,
2013-02-19 15:31:00,34.0,29.0,29.63,North,360,12.0,22.0,81,0.00,,,0.00,,2013-02-19 23:31:00,
2013-02-19 15:41:00,34.0,29.0,29.63,North,360,12.0,22.0,81,0.00,,,0.00,,2013-02-19 23:41:00,
2013-02-19 15:52:00,35.0,29.0,29.62,North,355,11.0,21.0,77,0.00,,,0.00,,2013-02-19 23:52:00,
2013-02-19 16:01:00,35.0,28.0,29.61,North,360,10.0,18.0,75,0.00,,,0.00,,2013-02-20 00:01:00,
2013-02-19 16:11:00,35.0,28.0,29.61,North,360,10.0,18.0,75,0.00,,,0.00,,2013-02-20 00:11:00,
2013-02-19 16:21:00,35.0,28.0,29.60,NNW,338,7.0,15.0,75,0.00,,,0.00,,2013-02-20 00:21:00,
2013-02-19 16:31:00,35.0,27.0,29.59,North,355,7.0,16.0,73,0.00,,,0.00,,2013-02-20 00:31:00,
2013-02-19 16:41:00,35.0,27.0,29.59,North,355,7.0,16.0,73,0.00,,,0.00,,2013-02-20 00:41:00,
2013-02-19 16:51:00,36.0,28.0,29.59,NNW,342,3.0,12.0,73,0.00,,,0.00,,2013-02-20 00:51:00,
2013-02-19 17:02:00,36.0,29.0,29.58,SE,137,1.0,7.0,77,0.00,,,0.00,,2013-02-20 01:02:00,
2013-02-19 17:11:00,36.0,29.0,29.58,SE,137,1.0,7.0,77,0.00,,,0.00,,2013-02-20 01:11:00,
2013-02-19 17:21:00,35.0,32.0,29.58,South,171,9.0,13.0,88,0.00,,,0.00,,2013-02-20 01:21:00,
2013-02-19 17:31:00,34.0,31.0,29.57,SSE,163,7.0,11.0,90,0.00,,,0.00,,2013-02-20 01:31:00,
2013-02-19 17:41:00,34.0,31.0,29.57,SSE,163,7.0,11.0,90,0.00,,,0.00,,2013-02-20 01:41:00,
2013-02-19 17:52:00,34.0,32.0,29.57,SE,140,8.0,14.0,91,0.00,,,0.00,,2013-02-20 01:52:00,
2013-02-19 18:01:00,33.0,30.0,29.57,SE,146,5.0,15.0,90,0.00,,,0.00,,2013-02-20 02:01:00,
2013-02-19 18:11:00,33.0,30.0,29.57,SE,146,5.0,15.0,90,0.00,,,0.00,,2013-02-20 02:11:00,
2013-02-19 18:21:00,33.0,30.0,29.56,SSW,200,8.0,13.0,90,0.00,,,0.00,,2013-02-20 02:21:00,
2013-02-19 18:31:00,33.0,31.0,29.56,South,181,10.0,15.0,91,0.00,,,0.00,,2013-02-20 02:31:00,
2013-02-19 18:41:00,33.0,31.0,29.56,South,181,10.0,15.0,91,0.00,,,0.00,,2013-02-20 02:41:00,
2013-02-19 18:52:00,32.0,30.0,29.55,SE,144,10.0,22.0,93,0.00,,,0.00,,2013-02-20 02:52:00,
2013-02-19 19:01:00,32.0,30.0,29.55,SE,141,9.0,14.0,94,0.00,,,0.00,,2013-02-20 03:01:00,
2013-02-19 19:11:00,32.0,30.0,29.55,SE,141,9.0,14.0,94,0.00,,,0.00,,2013-02-20 03:11:00,
2013-02-19 19:21:00,31.0,30.0,29.56,SSE,164,9.0,19.0,95,0.00,,,0.00,,2013-02-20 03:21:00,
2013-02-19 19:31:00,31.0,30.0,29.55,SE,144,5.0,11.0,95,0.00,,,0.00,,2013-02-20 03:31:00,
2013-02-19 19:41:00,31.0,30.0,29.55,SE,144,5.0,11.0,95,0.00,,,0.00,,2013-02-20 03:41:00,
2013-02-19 19:52:00,31.0,30.0,29.54,SE,126,4.0,11.0,95,0.00,,,0.00,,2013-02-20 03:52:00,
2013-02-19 20:01:00,31.0,30.0,29.54,SE,146,4.0,6.0,95,0.00,,,0.00,,2013-02-20 04:01:00,
2013-02-19 20:11:00,31.0,30.0,29.54,SE,146,4.0,6.0,95,0.00,,,0.00,,2013-02-20 04:11:00,
2013-02-19 20:21:00,31.0,30.0,29.55,NNW,340,12.0,21.0,95,0.00,,,0.00,,2013-02-20 04:21:00,
2013-02-19 20:31:00,29.0,27.0,29.54,NNW,338,13.0,31.0,94,0.00,,,0.00,,2013-02-20 04:31:00,
2013-02-19 20:41:00,29.0,27.0,29.54,NNW,338,13.0,31.0,94,0.00,,,0.00,,2013-02-20 04:41:00,
2013-02-19 20:52:00,29.0,27.0,29.56,WNW,291,15.0,34.0,94,0.00,,,0.00,,2013-02-20 04:52:00,
2013-02-19 21:01:00,28.0,26.0,29.53,North,350,16.0,35.0,93,0.00,,,0.00,,2013-02-20 05:01:00,
2013-02-19 21:12:00,28.0,26.0,29.53,North,350,16.0,35.0,93,0.00,,,0.00,,2013-02-20 05:12:00,
2013-02-19 21:22:00,28.0,26.0,29.53,NW,326,13.0,33.0,93,0.00,,,0.00,,2013-02-20 05:22:00,
2013-02-19 21:32:00,28.0,26.0,29.52,North,355,15.0,27.0,92,0.00,,,0.00,,2013-02-20 05:32:00,
2013-02-19 21:42:00,28.0,26.0,29.52,North,355,15.0,27.0,92,0.00,,,0.00,,2013-02-20 05:42:00,
2013-02-19 21:52:00,29.0,27.0,29.52,North,351,9.0,32.0,92,0.00,,,0.00,,2013-02-20 05:52:00,
2013-02-19 22:01:00,27.0,25.0,29.54,NNE,17,18.0,43.0,92,0.00,,,0.00,,2013-02-20 06:01:00,
2013-02-19 22:11:00,27.0,25.0,29.52,NNE,26,13.0,28.0,93,0.00,,,0.00,,2013-02-20 06:11:00,
2013-02-19 22:21:00,27.0,25.0,29.52,NNE,26,13.0,28.0,93,0.00,,,0.00,,2013-02-20 06:21:00,
2013-02-19 22:31:00,28.0,26.0,29.49,NNW,345,16.0,33.0,92,0.00,,,0.00,,2013-02-20 06:31:00,
2013-02-19 22:41:00,28.0,26.0,29.49,NNW,345,16.0,33.0,92,0.00,,,0.00,,2013-02-20 06:41:00,
2013-02-19 22:51:00,27.0,25.0,29.48,North,360,21.0,39.0,91,0.00,,,0.00,,2013-02-20 06:51:00,
2013-02-19 23:01:00,27.0,25.0,29.48,North,355,12.0,31.0,91,0.00,,,0.00,,2013-02-20 07:01:00,
2013-02-19 23:11:00,27.0,25.0,29.48,North,355,12.0,31.0,91,0.00,,,0.00,,2013-02-20 07:11:00,
2013-02-19 23:21:00,26.0,24.0,29.49,NW,323,16.0,44.0,92,0.00,,,0.00,,2013-02-20 07:21:00,
2013-02-19 23:31:00,26.0,24.0,29.47,North,360,11.0,28.0,92,0.00,,,0.00,,2013-02-20 07:31:00,
2013-02-19 23:41:00,26.0,24.0,29.47,North,360,11.0,28.0,92,0.00,,,0.00,,2013-02-20 07:41:00,
2013-02-19 23:52:00,26.0,24.0,29.48,NW,326,16.0,33.0,92,0.00,,,0.00,,2013-02-20 07:52:00,